Content
SEND FEEDBACK

Daily
Averages
Monthly
Summary
Argentina

TUCUMAN, ARGENTINA


Home > South America > Argentina
Elevation: 1476 feet     Latitude: 26 51S     Longitude: 065 06W

WEATHER
 
SELECT A DAY
Number of Records: 145,511;   Date Range: 6/30/96 - 8/10/14
 
SHARE

PRINT THIS DATA

[ ← Previous Day ]
WEATHER ALMANAC - JANUARY 31, 2013
[ Next Day → ]
[ °C ]   °F
Weather ElementAverageHighLow
Temperature81.8 °F95 °F (4:00 pm)69.8 °F (7:00 am)
Dewpoint64.5 °F71.6 °F (1:00 pm)55.4 °F (1:00 am)
Humidity55.7 %78 % (3:00 am)32 % (3:00 pm)
Barometer28.41 in29.86 in (10:00 am) (7:00 pm)
Wind Speed8.6 mph13.8 mph (1:00 am)
Weather ElementAverage
Visibility6.1 mi
Wind DirectionSW (226.4 °)

Weather ElementTotal
Precipitation---
Cooling Degree Days17.4 (Base 65)
Growing Degree Days32.4 (Base 50)
Averaged from 22 records on January 31, 2013
WEATHER CONDITIONS BREAKOUT
WIND DIRECTION BREAKOUT
WEATHER BY HOUR - JANUARY 31, 2013
[ °C ]   °F
Local TimeTemperatureDewpointHumidityBarometerVisibilityWind DirectionWind SpeedGust SpeedPrecipitationEventsConditions
1:00 AM78.8 °F55.4 °F44 %29.74 in6.2 miNorth (360°)13.8 mph
2:00 AM77.0 °F55.4 °F47 %29.74 in6.2 miNorth (360°)13.8 mph
3:00 AM77.0 °F69.0 °F68 %29.62 in7.0 miWest (270°)6.9 mphPartly Cloudy
3:00 AM75.2 °F68.0 °F78 %29.74 inWest (270°)6.9 mphClear
4:00 AM75.2 °F68.0 °F78 %29.74 inWest (270°)9.2 mphClear
5:00 AM71.6 °F64.4 °F78 %29.74 in6.2 miEast (90°)11.5 mphScattered Clouds
6:00 AM75.2 °F57.2 °F53 %29.74 in6.2 miNorth (360°)11.5 mph
7:00 AM69.8 °F60.8 °F73 %29.77 inSouth (180°)4.6 mphClear
8:00 AM71.6 °F62.6 °F73 %29.80 in5.0 miSW (230°)11.5 mph
9:00 AM76.0 °F62.0 °F54 %29.72 in6.0 miSW (230°)9.2 mphHaze
9:00 AM77.0 °F62.6 °F61 %29.83 in5.6 miSW (230°)9.2 mph
10:00 AM80.6 °F64.4 °F58 %29.86 in6.2 miSouth (180°)9.2 mphPartly Cloudy
11:00 AM82.4 °F64.4 °F54 %29.86 in6.2 miSouth (180°)11.5 mphPartly Cloudy
12:00 PM87.8 °F66.2 °F49 %29.86 in6.2 miSW (230°)10.4 mphPartly Cloudy
1:00 PM89.6 °F71.6 °F55 %29.86 in6.2 miSouth (180°)6.9 mphPartly Cloudy
2:00 PM91.4 °F66.2 °F43 %29.83 in6.2 miSouth (180°)4.6 mphPartly Cloudy
3:00 PM93.2 °F66.2 °F41 %29.80 in6.2 miSouth (180°)10.4 mph
3:00 PM93.0 °F67.0 °F32 %29.68 in7.0 miSouth (180°)10.4 mphScattered Clouds
4:00 PM95.0 °F64.4 °F36 %29.77 in6.2 miSE (140°)6.9 mphPartly Cloudy
6:00 PM93.2 °F66.2 °F41 %29.71 in6.2 miSouth (180°)4.6 mphScattered Clouds
9:00 PM85.0 °F70.0 °F51 %29.60 in5.0 miSouth (180°)2.3 mphHaze
11:00 PM84.2 °F68.0 °F58 %5.0 miNW (320°)4.6 mphThunderstormThunderstorm
Hourly data recorded from SANT, located miles away from Tucuman, Argentina







STORIES FROM OUR PARTNERS